TimeCDT,TemperatureF,Dew PointF,Humidity,Sea Level PressureIn,VisibilityMPH,Wind Direction,Wind SpeedMPH,Gust SpeedMPH,PrecipitationIn,Events,Conditions,WindDirDegrees,DateUTC
12:53 AM,73.9,72.0,93,30.01,9.0,SW,6.9,-,N/A,,Overcast,230,2012-10-15 05:53:00
1:53 AM,73.9,72.0,93,30.00,9.0,WSW,6.9,-,N/A,,Mostly Cloudy,250,2012-10-15 06:53:00
2:53 AM,70.0,68.0,93,30.00,10.0,NW,3.5,-,0.00,,Mostly Cloudy,310,2012-10-15 07:53:00
3:28 AM,68.0,66.2,94,29.99,1.8,Variable,5.8,-,0.15,Rain,Heavy Rain,0,2012-10-15 08:28:00
3:34 AM,68.0,66.2,94,30.00,3.0,NW,8.1,-,0.19,Rain,Rain,320,2012-10-15 08:34:00
3:53 AM,66.9,66.0,97,30.00,4.0,NW,4.6,-,0.25,Rain,Rain,310,2012-10-15 08:53:00
4:53 AM,68.0,66.9,96,29.98,10.0,Calm,Calm,-,0.01,,Overcast,0,2012-10-15 09:53:00
5:53 AM,66.9,66.0,97,30.01,10.0,Calm,Calm,-,N/A,,Clear,0,2012-10-15 10:53:00
6:53 AM,66.2,64.4,94,30.01,10.0,Calm,Calm,-,N/A,,Clear,0,2012-10-15 11:53:00
7:53 AM,66.9,66.0,97,30.02,10.0,Calm,Calm,-,N/A,,Clear,0,2012-10-15 12:53:00
8:53 AM,70.0,66.0,87,30.04,10.0,NNE,4.6,-,N/A,,Clear,30,2012-10-15 13:53:00
9:53 AM,72.0,64.0,76,30.05,10.0,NNE,5.8,-,N/A,,Clear,30,2012-10-15 14:53:00
10:53 AM,75.0,63.0,66,30.04,10.0,North,6.9,-,N/A,,Clear,360,2012-10-15 15:53:00
11:53 AM,78.1,61.0,56,30.03,10.0,North,5.8,-,N/A,,Clear,10,2012-10-15 16:53:00
12:53 PM,79.0,61.0,54,30.00,10.0,NNE,5.8,-,N/A,,Clear,30,2012-10-15 17:53:00
1:53 PM,81.0,57.9,45,29.97,10.0,Variable,3.5,-,N/A,,Clear,0,2012-10-15 18:53:00
2:53 PM,82.0,57.0,42,29.96,10.0,Variable,5.8,-,N/A,,Clear,0,2012-10-15 19:53:00
3:53 PM,81.0,55.0,41,29.95,10.0,Variable,6.9,-,N/A,,Clear,0,2012-10-15 20:53:00
4:53 PM,79.0,54.0,42,29.94,10.0,NNE,5.8,-,N/A,,Clear,20,2012-10-15 21:53:00
5:53 PM,75.0,55.0,50,29.94,10.0,North,4.6,-,N/A,,Clear,10,2012-10-15 22:53:00
6:53 PM,68.0,59.0,73,29.94,10.0,Calm,Calm,-,N/A,,Clear,0,2012-10-15 23:53:00
7:53 PM,66.0,59.0,78,29.96,10.0,Calm,Calm,-,N/A,,Clear,0,2012-10-16 00:53:00
8:53 PM,64.0,57.9,80,29.99,10.0,Calm,Calm,-,N/A,,Clear,0,2012-10-16 01:53:00
9:53 PM,62.1,57.0,84,30.01,10.0,Calm,Calm,-,N/A,,Clear,0,2012-10-16 02:53:00
10:53 PM,61.0,57.0,87,30.01,10.0,Calm,Calm,-,N/A,,Clear,0,2012-10-16 03:53:00
11:53 PM,57.9,55.9,93,30.01,10.0,Calm,Calm,-,N/A,,Clear,0,2012-10-16 04:53:00